Starlink 31984

operational
NORAD ID: 60018 Int'l Des: 2024-111 Owner: SPXS Country: US Constellation: starlink
LEOCIRCULAR

About Starlink 31984

Description loading...

Live Position

Loading 3D Globe...

Upcoming Passes

Altitude History

Altitude vs Time

uPlot chart will show altitude changes over time

Two-Line Element Set

1 60018U 24111C 25351.99776084 -.00000412 00000-0 -17881-5 0 9999
2 60018 53.1604 95.2505 0001101 94.7287 265.3840 15.30190999 86370
Epoch: Dec 17, 2025 • Age: 18 hours

Current Status

Altitude 492.3 km
Velocity 7.62 km/s
Sub-Earth Point -47.81°S, 34.61°W
Launch Date Jun 8, 2024
Age 1.5 years
Type internet

Technical Details

Classification Payload
Mass 730.00 kg
Dry Mass 700.00 kg
Total Mass 730.00 kg
Length 0.30 m
Diameter 4.10 m
Span 29.00 m
Shape Box + pan
Manufacturer SPXS
Bus Type Starlink V2M
Phase Status In Orbit
Owner/State SPXS/US

Large Constellations

Loading constellations...